Solomon, AZ

11:21 AM MST on August 28, 2016 (GMT -0700)
Safford Regional

Weather History for KSAD - June, 2013

Change the Weather History Date:

Thursday, June 27, 2013

  Actual Average Record
Temperature  
Mean Temperature 90 °F -  
Max Temperature 109 °F 101 °F 112 °F (1990)
Min Temperature 71 °F 66 °F 50 °F (1965)
Cooling Degree Days 25    
Growing Degree Days 40 (Base 50)    
Moisture  
Dew Point 25 °F    
Average Humidity 10    
Maximum Humidity 19    
Minimum Humidity 4    
Precipitation  
Precipitation 0.00 in - - ()
Sea Level Pressure  
Sea Level Pressure 29.84 in    
Wind  
Wind Speed 14 mph (WNW)    
Max Wind Speed 23 mph    
Max Gust Speed 33 mph    
Visibility 10 miles    
Events      
Averages and records for this station are not official NWS values.
T = Trace of Precipitation, MM = Missing Value Source: NWS Daily Summary

Daily Weather History Graph

Daily Weather History Graph

Search for Another Location

Airport or City:

Trip Planner

Search our weather history database for the weather conditions in past years. The results will help you decide how hot, cold, wet, or windy it might be!

Date:

Astronomy

Jun. 27, 2013 Rise Set
Actual Time 5:12 AM MST 7:30 PM MST
Civil Twilight 4:43 AM MST 7:59 PM MST
Nautical Twilight 4:08 AM MST 8:34 PM MST
Astronomical Twilight 3:30 AM MST 9:12 PM MST
Moon 10:48 PM MST (6/27) 10:00 AM MST (6/27)
Length of Visible Light 15h 15m
Length of Day
14h 18m
Waning Gibbous, 75% of the Moon is Illuminated
Jun 27
Waning Gibbous
Jun 29
Last Quarter
Jul 8
New
Jul 15
First Quarter
Jul 22
Full

Hourly Weather History & Observations

Time (MST) Temp. Dew Point Humidity Pressure Visibility Wind Dir Wind Speed Gust Speed Precip Events Conditions
12:51 AM 82.0 °F 26.1 °F 13% 29.84 in 10.0 mi NW 11.5 mph - N/A   Clear
1:51 AM 77.0 °F 24.1 °F 14% 29.84 in 10.0 mi West 10.4 mph - N/A   Clear
2:51 AM 75.9 °F 25.0 °F 15% 29.86 in 10.0 mi WNW 10.4 mph - N/A   Clear
3:51 AM 73.0 °F 25.0 °F 17% 29.86 in 10.0 mi West 8.1 mph - N/A   Clear
4:51 AM 75.9 °F 28.9 °F 18% 29.86 in 10.0 mi NW 11.5 mph - N/A   Clear
5:51 AM 71.1 °F 27.0 °F 19% 29.90 in 10.0 mi Calm Calm - N/A   Clear
6:51 AM 82.0 °F 30.0 °F 15% 29.91 in 10.0 mi NW 6.9 mph - N/A   Clear
7:51 AM 86.0 °F 28.9 °F 13% 29.93 in 10.0 mi WNW 13.8 mph - N/A   Clear
8:51 AM 91.9 °F 32.0 °F 12% 29.92 in 10.0 mi NW 18.4 mph - N/A   Clear
9:51 AM 96.1 °F 33.1 °F 11% 29.88 in 10.0 mi WNW 23.0 mph - N/A   Clear
10:51 AM - - N/A% 30.06 in - North - - N/A   Unknown
11:51 AM 102.9 °F 23.0 °F 6% 29.84 in 10.0 mi WNW 21.9 mph 29.9 mph N/A   Clear
12:51 PM 106.0 °F 16.0 °F 4% 29.81 in 10.0 mi WNW 23.0 mph 31.1 mph N/A   Clear
1:51 PM 108.0 °F 17.1 °F 4% 29.78 in 10.0 mi WNW 23.0 mph 33.4 mph N/A   Clear
2:51 PM 109.0 °F 18.0 °F 4% 29.76 in 10.0 mi West 19.6 mph 29.9 mph N/A   Clear
3:51 PM 108.0 °F 19.9 °F 4% 29.74 in 10.0 mi WNW 18.4 mph 27.6 mph N/A   Clear
4:51 PM 108.0 °F 23.0 °F 5% 29.73 in 10.0 mi WNW 23.0 mph 26.5 mph N/A   Clear
5:51 PM 104.0 °F 25.0 °F 6% 29.74 in 10.0 mi WNW 19.6 mph 27.6 mph N/A   Clear
6:51 PM 99.0 °F 25.0 °F 7% 29.74 in 10.0 mi WNW 17.3 mph - N/A   Clear
7:51 PM 95.0 °F 25.0 °F 8% 29.75 in 10.0 mi NW 17.3 mph - N/A   Clear
8:51 PM 93.0 °F 24.1 °F 8% 29.77 in 10.0 mi NW 18.4 mph - N/A   Clear
9:51 PM 91.9 °F 26.1 °F 9% 29.78 in 10.0 mi WNW 18.4 mph - N/A   Clear
10:51 PM 88.0 °F 26.1 °F 11% 29.99 in 10.0 mi NW 16.1 mph - N/A   Clear
11:51 PM 90.0 °F 27.0 °F 10% 29.78 in 10.0 mi WNW 13.8 mph - N/A   Clear